Regional Weather Roundup
Issued by NWS

Home | Current Version | Previous Version | Text Only | Print | Product List | Glossary Off
Versions: 1 2 3 4 5 6 7 8 9 10 11 12 13 14 15 16 17 18 19 20 21 22 23 24 25 26 27 28 29 30 31 32 33 34 35 36 37 38 39 40 41 42 43 44 45 46 47 48 49 50

000
ASUS43 KLSX 301559
RWRMO

WEATHER SUMMARY FOR MISSOURI
NATIONAL WEATHER SERVICE SPRINGFIELD MO
1100 AM CDT THU JUL 30 2015

NOTE: "FAIR" INDICATES FEW OR NO CLOUDS BELOW 12,000 FEET WITH NO
       SIGNIFICANT WEATHER AND/OR OBSTRUCTIONS TO VISIBILITY.
       CURRENT SKY AND/OR WEATHER CONDITIONS ARE NOT AVAILABLE FOR
       CHILLICOTHE AND FARMINGTON.

MOZ001>031-035>038-043-044-053-054-301700-
...NORTHERN AND WESTERN MISSOURI...

CITY           SKY/WX    TMP DP  RH WIND       PRES   REMARKS
KANSAS CTY INT PTSUNNY   81  66  60 W6        30.23R
KANSAS C DTWN  PTSUNNY   83  66  56 N5        30.22R
LEE`S SUMMIT   PTSUNNY   84  55  36 S5        30.23R
ST JOSEPH        N/A     80  70  71 VRB3      30.22S
CHILLICOTHE      N/A     82  65  56 NW6       30.22R
KIRKSVILLE     SUNNY     83  61  47 NW9       30.21S

$$
MOZ066>068-077>081-088>096-101>105-301700-
...SOUTHWEST MISSOURI...

CITY           SKY/WX    TMP DP  RH WIND       PRES   REMARKS
SPRINGFIELD    MOSUNNY   81  59  47 NE8       30.22R
JOPLIN         MOSUNNY   83  62  49 E10       30.21R

$$
MOZ032>034-039>042-045>050-055>058-069>072-301700-
...CENTRAL MISSOURI...

CITY           SKY/WX    TMP DP  RH WIND       PRES   REMARKS
COLUMBIA       SUNNY     85  55  35 CALM      30.21R
JEFFERSON CITY SUNNY     82  63  52 CALM      30.19S
ROLLA          SUNNY     82  57  42 E5        30.21R
SEDALIA        MOSUNNY   85  55  35 SE6       30.22S
OSAGE BEACH    SUNNY     81  63  54 SE3       30.22R

$$
MOZ051-052-059>065-301700-
...EAST CENTRAL MISSOURI...

CITY           SKY/WX    TMP DP  RH WIND       PRES   REMARKS
ST LOUIS INTL  MOSUNNY   86  59  39 N3        30.18R
SPIRIT OF STL  SUNNY     84  65  52 CALM      30.17R
ST CHARLES     SUNNY     84  63  49 NW8       30.16R

$$
MOZ072>076-082>087-097>100-106>115-301700-
...SOUTH CENTRAL AND SOUTHEAST MISSOURI...

CITY           SKY/WX    TMP DP  RH WIND       PRES   REMARKS
CAPE GIRARDEAU NOT AVBL
FARMINGTON     SUNNY     81  61  50 NE6       30.24R
POPLAR BLUFF   SUNNY     83  64  52 NE10      30.16R
WEST PLAINS    SUNNY     81  59  47 E7        30.23R

$$


USA.gov is the U.S. government's official web portal to all federal, state and local government web resources and services.